Location: Parc National du Mont-Orford
(45.3122°N, 72.2403°W)
Time: 05:13:02
(UTC-04:00)

Envisat - Pass Details

Date: 31 January 2018
Orbit: 764 x 766 km, 98.2° (Epoch: 20 May)

Event Time Altitude Azimuth Distance (km) Brightness Sun altitude
Exits shadow 20:17:54 27° 251° (WSW) 1,448 4.8 -35.7°
Maximum altitude 20:18:38 28° 266° (W) 1,415 4.8 -35.9°
Drops below altitude 10° 20:22:58 10° 324° (NW) 2,309 5.9 -36.6°
Sets 20:25:37 0° 337° (NNW) 3,240 6.7 -37.1°
